This demonstration page uses our WeatherBlox Daily Observations layout. Learn more.

Left ArrowRight Arrow

Hourly Observations for March 26, 2021

Temp ( °F °C ) Dew Point ( °F °C ) Humidity (%) Winds ( mph kmh ) Pressure ( in mb ) Visibility ( mi km ) Precip ( " mm )
12:51 am 00:51 Clear 52 11.1 22 -5.6 31 31 NNW 12 19 29.74 1007 10 16.0934 0 0
1:51 am 01:51 Cloudy 50 10 23 -5 35 35 NNW 9 15 29.74 1007 10 16.0934 0 0
2:51 am 02:51 undefined 49 9.4 23 -5 36 36 Calm 29.74 1007 10 16.0934 0 0
3:51 am 03:51 Clear 44 6.7 23 -5 43 43 S 5 7 29.74 1007 10 16.0934 0 0
4:51 am 04:51 Clear 42 5.6 24 -4.4 49 49 ENE 8 13 29.75 1007 10 16.0934 0 0
5:51 am 05:51 Clear 41 5 25 -3.9 53 53 NE 6 9 29.77 1008 10 16.0934 0 0
6:51 am 06:51 Sunny 41 5 25 -3.9 53 53 NE 6 9 29.8 1009 10 16.0934 0 0
7:51 am 07:51 Sunny 52 11.1 27 -2.8 38 38 N 3 6 29.81 1010 10 16.0934 0 0
8:51 am 08:51 Sunny 53 11.7 26 -3.3 35 35 W 6 9 29.84 1010 10 16.0934 0 0
9:51 am 09:51 Sunny 57 13.9 27 -2.8 32 32 VRB 5 7 29.83 1010 10 16.0934 0 0
10:51 am 10:51 Sunny 59 15 26 -3.3 28 28 WNW 6 9 29.83 1010 10 16.0934 0 0
11:51 am 11:51 Sunny 62 16.7 26 -3.3 25 25 undefined N/A 29.81 1010 10 16.0934 0 0
12:51 pm 12:51 Sunny 61 16.1 25 -3.9 25 25 VRB 3 6 29.79 1009 10 16.0934 0 0
1:51 pm 13:51 Sunny 63 17.2 25 -3.9 24 24 W 8 13 29.77 1008 10 16.0934 0 0
2:51 pm 14:51 Sunny 64 17.8 25 -3.9 23 23 ENE 7 11 29.75 1008 10 16.0934 0 0
3:51 pm 15:51 Mostly Sunny 66 18.9 24 -4.4 20 20 WNW 13 20 29.75 1008 10 16.0934 0 0
4:51 pm 16:51 Mostly Cloudy 62 16.7 27 -2.8 26 26 NW 17 28 29.79 1009 10 16.0934 0 0
5:51 pm 17:51 Cloudy 59 15 29 -1.7 32 32 NW 21 33 29.82 1010 10 16.0934 0 0
6:51 pm 18:51 Mostly Cloudy 57 13.9 30 -1.1 36 36 NW 24 39 29.85 1011 10 16.0934 0 0
7:51 pm 19:51 Cloudy 56 13.3 32 0 40 40 NW 20 31 29.86 1011 10 16.0934 0 0
8:51 pm 20:51 Cloudy 54 12.2 33 0.6 45 45 NW 18 30 29.89 1012 10 16.0934 0 0
9:51 pm 21:51 Cloudy 53 11.7 35 1.7 51 51 NW 15 24 29.91 1013 10 16.0934 0 0
10:51 pm 22:51 Cloudy 52 11.1 34 1.1 50 50 NW 17 28 29.92 1013 10 16.0934 0 0

Powered by AerisWeather